Time,TemperatureF,DewpointF,PressureIn,WindDirection,WindDirectionDegrees,WindSpeedMPH,WindSpeedGustMPH,Humidity,HourlyPrecipIn,Conditions,Clouds,dailyrainin,SoftwareType,DateUTC
2013-03-08 00:00:00,38.1,29.2,30.18,WSW,250,1.0,4.0,70,0.00,,---,0.00,VWS V14.01,2013-03-08 05:00:00,
2013-03-08 00:01:00,38.1,29.2,30.18,SE,129,2.0,4.0,70,0.00,,---,0.00,VWS V14.01,2013-03-08 05:01:00,
2013-03-08 00:06:00,37.9,29.4,30.18,WNW,283,0.0,1.0,71,0.00,,---,0.00,VWS V14.01,2013-03-08 05:06:00,
2013-03-08 00:11:00,37.7,29.2,30.18,NNW,342,1.0,3.0,71,0.00,,---,0.00,VWS V14.01,2013-03-08 05:11:00,
2013-03-08 00:16:00,37.7,29.2,30.18,West,262,1.0,5.0,71,0.00,,---,0.00,VWS V14.01,2013-03-08 05:16:00,
2013-03-08 00:21:00,37.7,29.2,30.18,NW,310,1.0,5.0,71,0.00,,---,0.00,VWS V14.01,2013-03-08 05:21:00,
2013-03-08 00:26:00,37.6,29.1,30.18,West,266,1.0,5.0,71,0.00,,---,0.00,VWS V14.01,2013-03-08 05:26:00,
2013-03-08 00:31:00,37.5,29.0,30.18,WNW,293,0.0,5.0,71,0.00,,---,0.00,VWS V14.01,2013-03-08 05:31:00,
2013-03-08 00:36:00,37.4,29.2,30.18,WSW,240,1.0,3.0,72,0.00,,---,0.00,VWS V14.01,2013-03-08 05:36:00,
2013-03-08 00:41:00,37.3,29.1,30.18,West,260,1.0,3.0,72,0.00,,---,0.00,VWS V14.01,2013-03-08 05:41:00,
2013-03-08 00:46:00,37.4,29.2,30.18,ENE,71,1.0,6.0,72,0.00,,---,0.00,VWS V14.01,2013-03-08 05:46:00,
2013-03-08 00:51:00,37.4,29.2,30.18,NW,315,0.0,6.0,72,0.00,,---,0.00,VWS V14.01,2013-03-08 05:51:00,
2013-03-08 00:56:00,37.3,29.1,30.18,SW,227,1.0,6.0,72,0.00,,---,0.00,VWS V14.01,2013-03-08 05:56:00,
2013-03-08 01:01:00,37.3,29.1,30.18,North,359,2.0,6.0,72,0.00,,---,0.00,VWS V14.01,2013-03-08 06:01:00,
2013-03-08 01:06:00,37.2,29.0,30.18,NNW,329,5.0,6.0,72,0.00,,---,0.00,VWS V14.01,2013-03-08 06:06:00,
2013-03-08 01:11:00,37.2,28.7,30.18,North,360,3.0,6.0,71,0.00,,---,0.00,VWS V14.01,2013-03-08 06:11:00,
2013-03-08 01:16:00,37.1,28.9,30.18,West,276,0.0,6.0,72,0.00,,---,0.00,VWS V14.01,2013-03-08 06:16:00,
2013-03-08 01:21:00,37.1,28.6,30.18,WNW,290,2.0,6.0,71,0.00,,---,0.00,VWS V14.01,2013-03-08 06:21:00,
2013-03-08 01:26:00,37.1,28.6,30.18,West,264,0.0,6.0,71,0.00,,---,0.00,VWS V14.01,2013-03-08 06:26:00,
2013-03-08 01:31:00,37.1,28.6,30.18,NNW,333,4.0,6.0,71,0.00,,---,0.00,VWS V14.01,2013-03-08 06:31:00,
2013-03-08 01:36:00,37.0,28.5,30.19,NW,313,0.0,4.0,71,0.00,,---,0.00,VWS V14.01,2013-03-08 06:36:00,
2013-03-08 01:41:00,37.0,28.5,30.19,West,262,1.0,4.0,71,0.00,,---,0.00,VWS V14.01,2013-03-08 06:41:00,
2013-03-08 01:46:00,37.0,28.1,30.19,NW,325,0.0,5.0,70,0.00,,---,0.00,VWS V14.01,2013-03-08 06:46:00,
2013-03-08 01:51:00,36.8,28.3,30.19,West,271,0.0,5.0,71,0.00,,---,0.00,VWS V14.01,2013-03-08 06:51:00,
2013-03-08 01:56:00,36.7,28.2,30.19,WNW,293,2.0,5.0,71,0.00,,---,0.00,VWS V14.01,2013-03-08 06:56:00,
2013-03-08 02:01:00,36.7,28.2,30.18,West,276,1.0,5.0,71,0.00,,---,0.00,VWS V14.01,2013-03-08 07:01:00,
2013-03-08 02:06:00,36.6,28.1,30.18,NW,316,0.0,3.0,71,0.00,,---,0.00,VWS V14.01,2013-03-08 07:06:00,
2013-03-08 02:11:00,36.6,28.1,30.18,SW,232,0.0,4.0,71,0.00,,---,0.00,VWS V14.01,2013-03-08 07:11:00,
2013-03-08 02:16:00,36.6,28.1,30.18,SSW,205,0.0,5.0,71,0.00,,---,0.00,VWS V14.01,2013-03-08 07:16:00,
2013-03-08 02:21:00,36.5,28.0,30.18,West,281,1.0,5.0,71,0.00,,---,0.00,VWS V14.01,2013-03-08 07:21:00,
2013-03-08 02:26:00,36.4,27.9,30.18,SW,217,0.0,5.0,71,0.00,,---,0.00,VWS V14.01,2013-03-08 07:26:00,
2013-03-08 02:31:00,36.3,27.8,30.17,NE,44,0.0,5.0,71,0.00,,---,0.00,VWS V14.01,2013-03-08 07:31:00,
2013-03-08 02:36:00,36.3,27.8,30.17,WNW,295,1.0,5.0,71,0.00,,---,0.00,VWS V14.01,2013-03-08 07:36:00,
2013-03-08 02:41:00,36.2,27.7,30.17,NNW,340,0.0,5.0,71,0.00,,---,0.00,VWS V14.01,2013-03-08 07:41:00,
2013-03-08 02:46:00,36.1,27.6,30.17,SE,129,0.0,5.0,71,0.00,,---,0.00,VWS V14.01,2013-03-08 07:46:00,
2013-03-08 02:51:00,36.3,27.8,30.17,West,273,0.0,5.0,71,0.00,,---,0.00,VWS V14.01,2013-03-08 07:51:00,
2013-03-08 02:56:00,36.3,27.5,30.17,ENE,78,1.0,5.0,70,0.00,,---,0.00,VWS V14.01,2013-03-08 07:56:00,
2013-03-08 03:01:00,36.2,27.7,30.17,West,266,0.0,5.0,71,0.00,,---,0.00,VWS V14.01,2013-03-08 08:01:00,
2013-03-08 03:06:00,36.3,27.8,30.17,WNW,295,0.0,4.0,71,0.00,,---,0.00,VWS V14.01,2013-03-08 08:06:00,
2013-03-08 03:11:00,36.3,27.8,30.17,SW,226,3.0,4.0,71,0.00,,---,0.00,VWS V14.01,2013-03-08 08:11:00,
2013-03-08 03:16:00,36.2,27.7,30.17,West,264,3.0,4.0,71,0.00,,---,0.00,VWS V14.01,2013-03-08 08:16:00,
2013-03-08 03:21:00,36.1,27.6,30.17,NNE,27,3.0,4.0,71,0.00,,---,0.00,VWS V14.01,2013-03-08 08:21:00,
2013-03-08 03:26:00,36.1,28.0,30.17,NNE,33,3.0,6.0,72,0.00,,---,0.00,VWS V14.01,2013-03-08 08:26:00,
2013-03-08 03:31:00,36.1,28.0,30.16,WNW,288,0.0,6.0,72,0.00,,---,0.00,VWS V14.01,2013-03-08 08:31:00,
2013-03-08 03:36:00,36.1,28.0,30.17,WSW,250,2.0,4.0,72,0.00,,---,0.00,VWS V14.01,2013-03-08 08:36:00,
2013-03-08 03:41:00,36.2,28.1,30.16,SE,131,0.0,5.0,72,0.00,,---,0.00,VWS V14.01,2013-03-08 08:41:00,
2013-03-08 03:46:00,36.3,28.1,30.16,NW,309,1.0,5.0,72,0.00,,---,0.00,VWS V14.01,2013-03-08 08:46:00,
2013-03-08 03:51:00,36.3,28.1,30.16,West,276,0.0,5.0,72,0.00,,---,0.00,VWS V14.01,2013-03-08 08:51:00,
2013-03-08 03:56:00,36.2,28.1,30.16,SW,228,0.0,5.0,72,0.00,,---,0.00,VWS V14.01,2013-03-08 08:56:00,
2013-03-08 04:01:00,36.1,28.0,30.17,West,271,3.0,6.0,72,0.00,,---,0.00,VWS V14.01,2013-03-08 09:01:00,
2013-03-08 04:06:00,36.1,28.0,30.17,West,271,0.0,2.0,72,0.00,,---,0.00,VWS V14.01,2013-03-08 09:06:00,
2013-03-08 04:11:00,36.2,28.1,30.17,WSW,238,2.0,6.0,72,0.00,,---,0.00,VWS V14.01,2013-03-08 09:11:00,
2013-03-08 04:16:00,36.3,28.1,30.17,West,274,2.0,6.0,72,0.00,,---,0.00,VWS V14.01,2013-03-08 09:16:00,
2013-03-08 04:21:00,36.3,28.1,30.16,WNW,292,4.0,6.0,72,0.00,,---,0.00,VWS V14.01,2013-03-08 09:21:00,
2013-03-08 04:26:00,36.3,28.1,30.17,WNW,284,1.0,6.0,72,0.00,,---,0.00,VWS V14.01,2013-03-08 09:26:00,
2013-03-08 04:31:00,36.2,28.1,30.17,West,264,0.0,6.0,72,0.00,,---,0.00,VWS V14.01,2013-03-08 09:31:00,
2013-03-08 04:36:00,36.1,28.0,30.17,WNW,295,1.0,5.0,72,0.00,,---,0.00,VWS V14.01,2013-03-08 09:36:00,
2013-03-08 04:41:00,36.2,28.1,30.17,NNW,348,0.0,6.0,72,0.00,,---,0.00,VWS V14.01,2013-03-08 09:41:00,
2013-03-08 04:46:00,36.2,27.7,30.17,SE,129,5.0,8.0,71,0.00,,---,0.00,VWS V14.01,2013-03-08 09:46:00,
2013-03-08 04:51:00,36.3,27.8,30.18,NNE,16,1.0,8.0,71,0.00,,---,0.00,VWS V14.01,2013-03-08 09:51:00,
2013-03-08 04:56:00,36.2,27.7,30.17,WNW,292,0.0,8.0,71,0.00,,---,0.00,VWS V14.01,2013-03-08 09:56:00,
2013-03-08 05:01:00,36.1,27.6,30.18,SSW,211,0.0,8.0,71,0.00,,---,0.00,VWS V14.01,2013-03-08 10:01:00,
2013-03-08 05:06:00,36.1,27.6,30.18,NW,321,1.0,2.0,71,0.00,,---,0.00,VWS V14.01,2013-03-08 10:06:00,
2013-03-08 05:11:00,36.1,27.6,30.18,WNW,298,2.0,4.0,71,0.00,,---,0.00,VWS V14.01,2013-03-08 10:11:00,
2013-03-08 05:16:00,36.1,27.3,30.18,SW,233,0.0,4.0,70,0.00,,---,0.00,VWS V14.01,2013-03-08 10:16:00,
2013-03-08 05:21:00,36.0,27.2,30.18,NW,307,1.0,4.0,70,0.00,,---,0.00,VWS V14.01,2013-03-08 10:21:00,
2013-03-08 05:26:00,36.1,27.6,30.18,West,269,3.0,6.0,71,0.00,,---,0.00,VWS V14.01,2013-03-08 10:26:00,
2013-03-08 05:31:00,36.3,27.5,30.18,ENE,77,1.0,6.0,70,0.00,,---,0.00,VWS V14.01,2013-03-08 10:31:00,
2013-03-08 05:36:00,36.3,27.5,30.18,NW,316,1.0,4.0,70,0.00,,---,0.00,VWS V14.01,2013-03-08 10:36:00,
2013-03-08 05:41:00,36.3,27.1,30.18,WNW,293,0.0,11.0,69,0.00,,---,0.00,VWS V14.01,2013-03-08 10:41:00,
2013-03-08 05:46:00,36.3,27.1,30.18,SW,217,0.0,11.0,69,0.00,,---,0.00,VWS V14.01,2013-03-08 10:46:00,
2013-03-08 05:51:00,36.2,27.0,30.18,West,264,0.0,11.0,69,0.00,,---,0.00,VWS V14.01,2013-03-08 10:51:00,
2013-03-08 05:56:00,36.1,26.9,30.18,WNW,285,1.0,11.0,69,0.00,,---,0.00,VWS V14.01,2013-03-08 10:56:00,
2013-03-08 06:01:00,36.1,26.9,30.18,WSW,248,2.0,11.0,69,0.00,,---,0.00,VWS V14.01,2013-03-08 11:01:00,
2013-03-08 06:06:00,36.1,26.9,30.18,West,277,1.0,2.0,69,0.00,,---,0.00,VWS V14.01,2013-03-08 11:06:00,
2013-03-08 06:11:00,36.1,26.9,30.18,NW,306,0.0,3.0,69,0.00,,---,0.00,VWS V14.01,2013-03-08 11:11:00,
2013-03-08 06:16:00,36.1,26.9,30.17,WNW,295,2.0,3.0,69,0.00,,---,0.00,VWS V14.01,2013-03-08 11:16:00,
2013-03-08 06:21:00,36.2,26.7,30.17,WNW,285,0.0,5.0,68,0.00,,---,0.00,VWS V14.01,2013-03-08 11:21:00,
2013-03-08 06:26:00,36.3,26.8,30.18,North,11,2.0,6.0,68,0.00,,---,0.00,VWS V14.01,2013-03-08 11:26:00,
2013-03-08 06:31:00,36.5,26.6,30.18,WNW,290,2.0,6.0,67,0.00,,---,0.00,VWS V14.01,2013-03-08 11:31:00,
2013-03-08 06:36:00,36.4,26.5,30.18,South,191,1.0,6.0,67,0.00,,---,0.00,VWS V14.01,2013-03-08 11:36:00,
2013-03-08 06:41:00,36.3,26.4,30.18,ENE,75,1.0,6.0,67,0.00,,---,0.00,VWS V14.01,2013-03-08 11:41:00,
2013-03-08 06:46:00,36.5,27.0,30.18,North,356,0.0,7.0,68,0.00,,---,0.00,VWS V14.01,2013-03-08 11:46:00,
2013-03-08 06:51:00,36.7,26.8,30.18,NNW,340,1.0,8.0,67,0.00,,---,0.00,VWS V14.01,2013-03-08 11:51:00,
2013-03-08 06:56:00,36.9,27.0,30.19,ESE,120,1.0,11.0,67,0.00,,---,0.00,VWS V14.01,2013-03-08 11:56:00,
2013-03-08 07:01:00,37.0,27.1,30.19,North,350,3.0,11.0,67,0.00,,---,0.00,VWS V14.01,2013-03-08 12:01:00,
2013-03-08 07:06:00,37.2,27.3,30.19,NNW,339,1.0,7.0,67,0.00,,---,0.00,VWS V14.01,2013-03-08 12:06:00,
2013-03-08 07:11:00,37.2,27.3,30.19,WNW,288,3.0,7.0,67,0.00,,---,0.00,VWS V14.01,2013-03-08 12:11:00,
2013-03-08 07:16:00,37.3,27.4,30.19,NW,315,4.0,7.0,67,0.00,,---,0.00,VWS V14.01,2013-03-08 12:16:00,
2013-03-08 07:21:00,37.4,27.5,30.19,WNW,295,1.0,8.0,67,0.00,,---,0.00,VWS V14.01,2013-03-08 12:21:00,
2013-03-08 07:26:00,37.4,27.5,30.19,West,274,3.0,10.0,67,0.00,,---,0.00,VWS V14.01,2013-03-08 12:26:00,
2013-03-08 07:31:00,37.4,27.5,30.19,North,359,1.0,10.0,67,0.00,,---,0.00,VWS V14.01,2013-03-08 12:31:00,
2013-03-08 07:36:00,37.3,27.4,30.19,NE,46,1.0,8.0,67,0.00,,---,0.00,VWS V14.01,2013-03-08 12:36:00,
2013-03-08 07:41:00,37.3,27.4,30.19,WNW,284,3.0,10.0,67,0.00,,---,0.00,VWS V14.01,2013-03-08 12:41:00,
2013-03-08 07:46:00,37.4,27.5,30.19,NNW,335,4.0,10.0,67,0.00,,---,0.00,VWS V14.01,2013-03-08 12:46:00,
2013-03-08 07:51:00,37.4,27.5,30.20,WSW,253,3.0,10.0,67,0.00,,---,0.00,VWS V14.01,2013-03-08 12:51:00,
2013-03-08 07:56:00,37.4,27.5,30.19,North,356,1.0,12.0,67,0.00,,---,0.00,VWS V14.01,2013-03-08 12:56:00,
2013-03-08 08:01:00,37.5,27.5,30.19,NNW,327,3.0,12.0,67,0.00,,---,0.00,VWS V14.01,2013-03-08 13:01:00,
2013-03-08 08:06:00,37.6,28.0,30.20,North,1,4.0,5.0,68,0.00,,---,0.00,VWS V14.01,2013-03-08 13:06:00,
2013-03-08 08:11:00,37.7,27.8,30.20,ESE,105,2.0,6.0,67,0.00,,---,0.00,VWS V14.01,2013-03-08 13:11:00,
2013-03-08 08:16:00,37.8,27.5,30.20,NNW,333,0.0,11.0,66,0.00,,---,0.00,VWS V14.01,2013-03-08 13:16:00,
2013-03-08 08:21:00,37.9,27.6,30.20,NNW,342,3.0,11.0,66,0.00,,---,0.00,VWS V14.01,2013-03-08 13:21:00,
2013-03-08 08:26:00,38.0,27.7,30.20,NW,321,4.0,12.0,66,0.00,,---,0.00,VWS V14.01,2013-03-08 13:26:00,
2013-03-08 08:31:00,38.0,27.7,30.20,SW,231,2.0,12.0,66,0.00,,---,0.00,VWS V14.01,2013-03-08 13:31:00,
2013-03-08 08:36:00,38.1,28.1,30.20,SSW,201,2.0,5.0,67,0.00,,---,0.00,VWS V14.01,2013-03-08 13:36:00,
2013-03-08 08:41:00,38.2,27.9,30.20,WNW,282,1.0,8.0,66,0.00,,---,0.00,VWS V14.01,2013-03-08 13:41:00,
2013-03-08 08:46:00,38.1,27.8,30.20,NNE,27,3.0,13.0,66,0.00,,---,0.00,VWS V14.01,2013-03-08 13:46:00,
2013-03-08 08:51:00,38.1,28.1,30.20,NNW,340,5.0,13.0,67,0.00,,---,0.00,VWS V14.01,2013-03-08 13:51:00,
2013-03-08 08:56:00,38.1,28.1,30.20,NW,311,3.0,13.0,67,0.00,,---,0.00,VWS V14.01,2013-03-08 13:56:00,
2013-03-08 09:01:00,38.2,28.2,30.20,NW,315,2.0,13.0,67,0.00,,---,0.00,VWS V14.01,2013-03-08 14:01:00,
2013-03-08 09:06:00,38.4,28.4,30.20,West,267,6.0,9.0,67,0.00,,---,0.00,VWS V14.01,2013-03-08 14:06:00,
2013-03-08 09:11:00,38.4,28.4,30.20,NNW,331,4.0,9.0,67,0.00,,---,0.00,VWS V14.01,2013-03-08 14:11:00,
2013-03-08 09:16:00,38.7,28.7,30.20,ESE,110,1.0,10.0,67,0.00,,---,0.00,VWS V14.01,2013-03-08 14:16:00,
2013-03-08 09:21:00,39.0,28.6,30.20,West,271,3.0,11.0,66,0.00,,---,0.00,VWS V14.01,2013-03-08 14:21:00,
2013-03-08 09:26:00,39.2,28.1,30.20,North,349,3.0,11.0,64,0.00,,---,0.00,VWS V14.01,2013-03-08 14:26:00,
2013-03-08 09:31:00,39.3,28.2,30.20,SW,229,4.0,11.0,64,0.00,,---,0.00,VWS V14.01,2013-03-08 14:31:00,
2013-03-08 09:36:00,39.7,28.5,30.20,NW,324,3.0,8.0,64,0.00,,---,0.00,VWS V14.01,2013-03-08 14:36:00,
2013-03-08 09:41:00,39.9,27.6,30.20,SW,233,2.0,8.0,61,0.00,,---,0.00,VWS V14.01,2013-03-08 14:41:00,
2013-03-08 09:46:00,39.7,27.0,30.20,East,98,3.0,12.0,60,0.00,,---,0.00,VWS V14.01,2013-03-08 14:46:00,
2013-03-08 09:51:00,39.7,26.6,30.20,NNW,335,4.0,12.0,59,0.00,,---,0.00,VWS V14.01,2013-03-08 14:51:00,
2013-03-08 09:56:00,39.6,26.1,30.20,NW,305,1.0,14.0,58,0.00,,---,0.00,VWS V14.01,2013-03-08 14:56:00,
2013-03-08 10:01:00,39.7,25.7,30.20,West,260,1.0,14.0,57,0.00,,---,0.00,VWS V14.01,2013-03-08 15:01:00,
2013-03-08 10:06:00,39.9,25.9,30.21,NNW,332,5.0,12.0,57,0.00,,---,0.00,VWS V14.01,2013-03-08 15:06:00,
2013-03-08 10:11:00,40.2,26.2,30.20,East,96,2.0,16.0,57,0.00,,---,0.00,VWS V14.01,2013-03-08 15:11:00,
2013-03-08 10:16:00,41.0,26.5,30.20,WNW,288,3.0,16.0,56,0.00,,---,0.00,VWS V14.01,2013-03-08 15:16:00,
2013-03-08 10:21:00,41.6,26.6,30.20,WNW,300,5.0,16.0,55,0.00,,---,0.00,VWS V14.01,2013-03-08 15:21:00,
2013-03-08 10:26:00,41.7,27.2,30.20,WSW,240,1.0,16.0,56,0.00,,---,0.00,VWS V14.01,2013-03-08 15:26:00,
2013-03-08 10:31:00,41.5,25.7,30.20,NNE,30,3.0,16.0,53,0.00,,---,0.00,VWS V14.01,2013-03-08 15:31:00,
2013-03-08 10:36:00,41.5,25.2,30.20,NNE,13,2.0,12.0,52,0.00,,---,0.00,VWS V14.01,2013-03-08 15:36:00,
2013-03-08 10:41:00,42.1,25.8,30.20,NE,44,2.0,12.0,52,0.00,,---,0.00,VWS V14.01,2013-03-08 15:41:00,
2013-03-08 10:46:00,42.7,26.8,30.20,WNW,292,4.0,15.0,53,0.00,,---,0.00,VWS V14.01,2013-03-08 15:46:00,
2013-03-08 10:51:00,43.3,27.3,30.20,North,352,3.0,15.0,53,0.00,,---,0.00,VWS V14.01,2013-03-08 15:51:00,
2013-03-08 10:56:00,43.1,26.7,30.20,WSW,257,6.0,16.0,52,0.00,,---,0.00,VWS V14.01,2013-03-08 15:56:00,
2013-03-08 11:01:00,43.2,26.8,30.20,ENE,58,3.0,16.0,52,0.00,,---,0.00,VWS V14.01,2013-03-08 16:01:00,
2013-03-08 11:06:00,43.6,28.5,30.20,WNW,285,3.0,7.0,55,0.00,,---,0.00,VWS V14.01,2013-03-08 16:06:00,
2013-03-08 11:11:00,43.1,26.7,30.20,West,259,1.0,14.0,52,0.00,,---,0.00,VWS V14.01,2013-03-08 16:11:00,
2013-03-08 11:16:00,43.2,27.2,30.20,SW,223,3.0,16.0,53,0.00,,---,0.00,VWS V14.01,2013-03-08 16:16:00,
2013-03-08 11:21:00,43.5,27.1,30.20,NW,309,5.0,16.0,52,0.00,,---,0.00,VWS V14.01,2013-03-08 16:21:00,
2013-03-08 11:26:00,43.5,25.6,30.19,West,270,2.0,16.0,49,0.00,,---,0.00,VWS V14.01,2013-03-08 16:26:00,
2013-03-08 11:31:00,43.8,26.4,30.20,WNW,290,5.0,16.0,50,0.00,,---,0.00,VWS V14.01,2013-03-08 16:31:00,
2013-03-08 11:36:00,44.3,26.9,30.20,SSW,197,4.0,8.0,50,0.00,,---,0.00,VWS V14.01,2013-03-08 16:36:00,
2013-03-08 11:41:00,44.1,26.7,30.20,North,5,10.0,11.0,50,0.00,,---,0.00,VWS V14.01,2013-03-08 16:41:00,
2013-03-08 11:46:00,44.2,26.8,30.20,NW,319,2.0,11.0,50,0.00,,---,0.00,VWS V14.01,2013-03-08 16:46:00,
2013-03-08 11:51:00,44.6,26.6,30.20,WNW,295,6.0,12.0,49,0.00,,---,0.00,VWS V14.01,2013-03-08 16:51:00,
2013-03-08 11:56:00,44.9,26.9,30.20,NW,315,6.0,12.0,49,0.00,,---,0.00,VWS V14.01,2013-03-08 16:56:00,
2013-03-08 12:01:00,45.1,26.6,30.20,WNW,303,5.0,12.0,48,0.00,,---,0.00,VWS V14.01,2013-03-08 17:01:00,
2013-03-08 12:06:00,45.0,26.5,30.20,NW,318,5.0,8.0,48,0.00,,---,0.00,VWS V14.01,2013-03-08 17:06:00,
2013-03-08 12:11:00,44.5,26.0,30.20,NW,311,3.0,10.0,48,0.00,,---,0.00,VWS V14.01,2013-03-08 17:11:00,
2013-03-08 12:16:00,43.8,25.4,30.20,West,264,3.0,14.0,48,0.00,,---,0.00,VWS V14.01,2013-03-08 17:16:00,
2013-03-08 12:21:00,44.2,26.3,30.19,NW,321,6.0,14.0,49,0.00,,---,0.00,VWS V14.01,2013-03-08 17:21:00,
2013-03-08 12:26:00,44.9,26.4,30.20,NNE,13,6.0,14.0,48,0.00,,---,0.00,VWS V14.01,2013-03-08 17:26:00,
2013-03-08 12:31:00,44.9,26.4,30.19,WSW,257,2.0,15.0,48,0.00,,---,0.00,VWS V14.01,2013-03-08 17:31:00,
2013-03-08 12:36:00,45.0,26.5,30.18,NNE,20,7.0,17.0,48,0.00,,---,0.00,VWS V14.01,2013-03-08 17:36:00,
2013-03-08 12:41:00,45.5,26.5,30.18,NW,314,2.0,17.0,47,0.00,,---,0.00,VWS V14.01,2013-03-08 17:41:00,
2013-03-08 12:46:00,45.7,26.6,30.18,WNW,285,5.0,17.0,47,0.00,,---,0.00,VWS V14.01,2013-03-08 17:46:00,
2013-03-08 12:51:00,45.7,26.1,30.17,West,274,7.0,17.0,46,0.00,,---,0.00,VWS V14.01,2013-03-08 17:51:00,
2013-03-08 12:56:00,45.6,26.5,30.17,ENE,61,2.0,17.0,47,0.00,,---,0.00,VWS V14.01,2013-03-08 17:56:00,
2013-03-08 13:01:00,46.0,26.9,30.16,West,273,3.0,17.0,47,0.00,,---,0.00,VWS V14.01,2013-03-08 18:01:00,
2013-03-08 13:06:00,46.6,26.9,30.16,NNE,19,3.0,12.0,46,0.00,,---,0.00,VWS V14.01,2013-03-08 18:06:00,
2013-03-08 13:11:00,46.8,26.6,30.17,WNW,298,6.0,12.0,45,0.00,,---,0.00,VWS V14.01,2013-03-08 18:11:00,
2013-03-08 13:16:00,47.0,27.3,30.17,North,8,10.0,13.0,46,0.00,,---,0.00,VWS V14.01,2013-03-08 18:16:00,
2013-03-08 13:21:00,46.7,26.5,30.17,SE,127,2.0,14.0,45,0.00,,---,0.00,VWS V14.01,2013-03-08 18:21:00,
2013-03-08 13:26:00,46.8,27.1,30.17,NW,306,9.0,15.0,46,0.00,,---,0.00,VWS V14.01,2013-03-08 18:26:00,
2013-03-08 13:31:00,46.8,27.6,30.17,ESE,105,2.0,15.0,47,0.00,,---,0.00,VWS V14.01,2013-03-08 18:31:00,
2013-03-08 13:36:00,47.0,27.3,30.17,WNW,302,6.0,7.0,46,0.00,,---,0.00,VWS V14.01,2013-03-08 18:36:00,
2013-03-08 13:41:00,47.2,27.0,30.17,WSW,243,2.0,14.0,45,0.00,,---,0.00,VWS V14.01,2013-03-08 18:41:00,
2013-03-08 13:46:00,47.5,27.2,30.16,East,79,2.0,14.0,45,0.00,,---,0.00,VWS V14.01,2013-03-08 18:46:00,
2013-03-08 13:51:00,47.9,27.6,30.16,WNW,298,2.0,14.0,45,0.00,,---,0.00,VWS V14.01,2013-03-08 18:51:00,
2013-03-08 13:56:00,48.3,28.5,30.16,NNE,21,3.0,14.0,46,0.00,,---,0.00,VWS V14.01,2013-03-08 18:56:00,
2013-03-08 14:01:00,48.3,28.0,30.16,North,6,4.0,14.0,45,0.00,,---,0.00,VWS V14.01,2013-03-08 19:01:00,
2013-03-08 14:06:00,48.0,28.2,30.16,West,266,0.0,11.0,46,0.00,,---,0.00,VWS V14.01,2013-03-08 19:06:00,
2013-03-08 14:11:00,48.2,28.4,30.17,NW,312,3.0,11.0,46,0.00,,---,0.00,VWS V14.01,2013-03-08 19:11:00,
2013-03-08 14:16:00,48.3,29.0,30.16,WNW,296,2.0,11.0,47,0.00,,---,0.00,VWS V14.01,2013-03-08 19:16:00,
2013-03-08 14:21:00,48.6,28.8,30.16,NNE,26,3.0,11.0,46,0.00,,---,0.00,VWS V14.01,2013-03-08 19:21:00,
2013-03-08 14:26:00,48.4,28.6,30.16,East,96,2.0,11.0,46,0.00,,---,0.00,VWS V14.01,2013-03-08 19:26:00,
2013-03-08 14:31:00,47.5,27.8,30.17,NNW,335,4.0,11.0,46,0.00,,---,0.00,VWS V14.01,2013-03-08 19:31:00,
2013-03-08 14:36:00,46.8,27.6,30.17,South,172,1.0,9.0,47,0.00,,---,0.00,VWS V14.01,2013-03-08 19:36:00,
2013-03-08 14:41:00,46.8,28.2,30.17,WNW,291,2.0,9.0,48,0.00,,---,0.00,VWS V14.01,2013-03-08 19:41:00,
2013-03-08 14:46:00,47.2,28.0,30.17,WSW,252,3.0,9.0,47,0.00,,---,0.00,VWS V14.01,2013-03-08 19:46:00,
2013-03-08 14:51:00,48.1,28.8,30.17,NNE,13,1.0,9.0,47,0.00,,---,0.00,VWS V14.01,2013-03-08 19:51:00,
2013-03-08 14:56:00,48.7,28.9,30.17,NE,49,4.0,9.0,46,0.00,,---,0.00,VWS V14.01,2013-03-08 19:56:00,
2013-03-08 15:01:00,48.8,29.0,30.17,NE,49,7.0,9.0,46,0.00,,---,0.00,VWS V14.01,2013-03-08 20:01:00,
2013-03-08 15:06:00,48.2,28.4,30.18,SE,135,3.0,7.0,46,0.00,,---,0.00,VWS V14.01,2013-03-08 20:06:00,
2013-03-08 15:11:00,47.5,27.8,30.17,SW,221,0.0,8.0,46,0.00,,---,0.00,VWS V14.01,2013-03-08 20:11:00,
2013-03-08 15:16:00,47.1,27.9,30.18,West,259,5.0,8.0,47,0.00,,---,0.00,VWS V14.01,2013-03-08 20:16:00,
2013-03-08 15:21:00,47.1,28.4,30.18,WSW,245,4.0,9.0,48,0.00,,---,0.00,VWS V14.01,2013-03-08 20:21:00,
2013-03-08 15:26:00,48.0,29.3,30.18,ENE,65,4.0,9.0,48,0.00,,---,0.00,VWS V14.01,2013-03-08 20:26:00,
2013-03-08 15:31:00,48.9,29.0,30.18,NW,308,2.0,9.0,46,0.00,,---,0.00,VWS V14.01,2013-03-08 20:31:00,
2013-03-08 15:36:00,49.9,30.0,30.18,NE,49,1.0,9.0,46,0.00,,---,0.00,VWS V14.01,2013-03-08 20:36:00,
2013-03-08 15:41:00,49.7,28.7,30.18,NNE,15,0.0,12.0,44,0.00,,---,0.00,VWS V14.01,2013-03-08 20:41:00,
2013-03-08 15:46:00,49.2,28.2,30.18,ESE,120,2.0,12.0,44,0.00,,---,0.00,VWS V14.01,2013-03-08 20:46:00,
2013-03-08 15:51:00,48.6,28.8,30.18,NW,314,1.0,15.0,46,0.00,,---,0.00,VWS V14.01,2013-03-08 20:51:00,
2013-03-08 15:56:00,48.6,29.3,30.18,ESE,118,1.0,15.0,47,0.00,,---,0.00,VWS V14.01,2013-03-08 20:56:00,
2013-03-08 16:01:00,49.3,28.9,30.18,NNW,330,2.0,15.0,45,0.00,,---,0.00,VWS V14.01,2013-03-08 21:01:00,
2013-03-08 16:06:00,49.4,29.0,30.19,NNE,25,2.0,13.0,45,0.00,,---,0.00,VWS V14.01,2013-03-08 21:06:00,
2013-03-08 16:11:00,49.7,29.2,30.19,NNE,26,3.0,13.0,45,0.00,,---,0.00,VWS V14.01,2013-03-08 21:11:00,
2013-03-08 16:16:00,49.6,29.1,30.19,East,85,4.0,13.0,45,0.00,,---,0.00,VWS V14.01,2013-03-08 21:16:00,
2013-03-08 16:21:00,49.5,29.1,30.19,West,274,3.0,13.0,45,0.00,,---,0.00,VWS V14.01,2013-03-08 21:21:00,
2013-03-08 16:26:00,49.3,28.9,30.19,SE,140,1.0,14.0,45,0.00,,---,0.00,VWS V14.01,2013-03-08 21:26:00,
2013-03-08 16:31:00,49.6,28.6,30.19,ENE,58,3.0,14.0,44,0.00,,---,0.00,VWS V14.01,2013-03-08 21:31:00,
2013-03-08 16:36:00,49.5,29.1,30.19,WNW,294,3.0,12.0,45,0.00,,---,0.00,VWS V14.01,2013-03-08 21:36:00,
2013-03-08 16:41:00,49.5,29.1,30.19,West,278,1.0,12.0,45,0.00,,---,0.00,VWS V14.01,2013-03-08 21:41:00,
2013-03-08 16:45:00,49.7,28.7,30.19,NE,52,8.0,12.0,44,0.00,,---,0.00,VWS V14.01,2013-03-08 21:45:00,
2013-03-08 16:51:00,49.4,29.0,30.19,SSE,168,4.0,12.0,45,0.00,,---,0.00,VWS V14.01,2013-03-08 21:51:00,
2013-03-08 16:56:00,49.5,29.1,30.20,WNW,287,3.0,12.0,45,0.00,,---,0.00,VWS V14.01,2013-03-08 21:56:00,
2013-03-08 17:00:00,49.7,28.7,30.20,WNW,297,7.0,12.0,44,0.00,,---,0.00,VWS V14.01,2013-03-08 22:00:00,
2013-03-08 17:05:00,49.6,29.1,30.20,NNW,334,3.0,8.0,45,0.00,,---,0.00,VWS V14.01,2013-03-08 22:05:00,
2013-03-08 17:10:00,49.3,28.9,30.21,NE,52,0.0,8.0,45,0.00,,---,0.00,VWS V14.01,2013-03-08 22:10:00,
2013-03-08 17:15:00,49.3,29.4,30.21,North,351,2.0,17.0,46,0.00,,---,0.00,VWS V14.01,2013-03-08 22:15:00,
2013-03-08 17:20:00,48.8,29.0,30.21,NNW,331,5.0,17.0,46,0.00,,---,0.00,VWS V14.01,2013-03-08 22:20:00,
2013-03-08 17:25:00,48.6,28.8,30.22,WSW,249,3.0,17.0,46,0.00,,---,0.00,VWS V14.01,2013-03-08 22:25:00,
2013-03-08 17:30:00,48.5,28.7,30.22,NNE,15,2.0,17.0,46,0.00,,---,0.00,VWS V14.01,2013-03-08 22:30:00,
2013-03-08 17:35:00,48.3,29.5,30.22,NNW,330,4.0,6.0,48,0.00,,---,0.00,VWS V14.01,2013-03-08 22:35:00,
2013-03-08 17:40:00,48.2,29.5,30.22,North,5,1.0,8.0,48,0.00,,---,0.00,VWS V14.01,2013-03-08 22:40:00,
2013-03-08 17:45:00,48.1,29.4,30.23,NNW,335,5.0,8.0,48,0.00,,---,0.00,VWS V14.01,2013-03-08 22:45:00,
2013-03-08 17:50:00,48.1,29.4,30.23,NW,311,4.0,8.0,48,0.00,,---,0.00,VWS V14.01,2013-03-08 22:50:00,
2013-03-08 17:55:00,47.9,28.7,30.22,NNW,335,7.0,9.0,47,0.00,,---,0.00,VWS V14.01,2013-03-08 22:55:00,
2013-03-08 18:00:00,47.8,29.1,30.23,NNW,345,1.0,11.0,48,0.00,,---,0.00,VWS V14.01,2013-03-08 23:00:00,
2013-03-08 18:05:00,47.8,29.1,30.23,NW,318,0.0,10.0,48,0.00,,---,0.00,VWS V14.01,2013-03-08 23:05:00,
2013-03-08 18:10:00,47.7,29.5,30.23,NNW,328,7.0,10.0,49,0.00,,---,0.00,VWS V14.01,2013-03-08 23:10:00,
2013-03-08 18:15:00,47.6,28.9,30.24,ENE,73,0.0,10.0,48,0.00,,---,0.00,VWS V14.01,2013-03-08 23:15:00,
2013-03-08 18:20:00,47.5,29.3,30.24,NNW,346,1.0,10.0,49,0.00,,---,0.00,VWS V14.01,2013-03-08 23:20:00,
2013-03-08 18:25:00,47.5,29.3,30.24,NE,42,3.0,10.0,49,0.00,,---,0.00,VWS V14.01,2013-03-08 23:25:00,
2013-03-08 18:30:00,47.4,28.7,30.24,WNW,285,1.0,10.0,48,0.00,,---,0.00,VWS V14.01,2013-03-08 23:30:00,
2013-03-08 18:35:00,47.3,29.1,30.24,NNE,32,4.0,6.0,49,0.00,,---,0.00,VWS V14.01,2013-03-08 23:35:00,
2013-03-08 18:40:00,47.3,29.1,30.24,NNW,339,2.0,10.0,49,0.00,,---,0.00,VWS V14.01,2013-03-08 23:40:00,
2013-03-08 18:45:00,47.2,29.0,30.25,WSW,238,2.0,10.0,49,0.00,,---,0.00,VWS V14.01,2013-03-08 23:45:00,
2013-03-08 18:50:00,47.1,28.9,30.25,ESE,103,2.0,10.0,49,0.00,,---,0.00,VWS V14.01,2013-03-08 23:50:00,
2013-03-08 18:55:00,47.1,28.9,30.25,NW,321,2.0,10.0,49,0.00,,---,0.00,VWS V14.01,2013-03-08 23:55:00,
2013-03-08 19:00:00,47.0,29.3,30.25,East,101,2.0,10.0,50,0.00,,---,0.00,VWS V14.01,2013-03-09 00:00:00,
2013-03-08 19:05:00,47.0,28.9,30.25,NNW,344,4.0,9.0,49,0.00,,---,0.00,VWS V14.01,2013-03-09 00:05:00,
2013-03-08 19:10:00,46.9,29.2,30.25,NW,315,2.0,12.0,50,0.00,,---,0.00,VWS V14.01,2013-03-09 00:10:00,
2013-03-08 19:15:00,46.9,29.2,30.25,NNE,21,4.0,12.0,50,0.00,,---,0.00,VWS V14.01,2013-03-09 00:15:00,
2013-03-08 19:20:00,46.8,29.6,30.25,North,353,1.0,12.0,51,0.00,,---,0.00,VWS V14.01,2013-03-09 00:20:00,
2013-03-08 19:25:00,46.8,29.2,30.25,WNW,302,3.0,12.0,50,0.00,,---,0.00,VWS V14.01,2013-03-09 00:25:00,
2013-03-08 19:30:00,46.7,29.1,30.26,NW,323,3.0,12.0,50,0.00,,---,0.00,VWS V14.01,2013-03-09 00:30:00,
2013-03-08 19:35:00,46.8,29.2,30.26,NNW,339,5.0,11.0,50,0.00,,---,0.00,VWS V14.01,2013-03-09 00:35:00,
2013-03-08 19:40:00,46.8,29.2,30.26,NW,306,4.0,11.0,50,0.00,,---,0.00,VWS V14.01,2013-03-09 00:40:00,
2013-03-08 19:45:00,46.9,28.8,30.26,NNW,335,1.0,11.0,49,0.00,,---,0.00,VWS V14.01,2013-03-09 00:45:00,
2013-03-08 19:50:00,46.8,29.2,30.26,North,6,1.0,11.0,50,0.00,,---,0.00,VWS V14.01,2013-03-09 00:50:00,
2013-03-08 19:55:00,46.8,28.7,30.26,WNW,298,4.0,11.0,49,0.00,,---,0.00,VWS V14.01,2013-03-09 00:55:00,
2013-03-08 20:00:00,46.8,28.7,30.27,NNW,337,0.0,11.0,49,0.00,,---,0.00,VWS V14.01,2013-03-09 01:00:00,
2013-03-08 20:05:00,46.8,29.2,30.27,West,264,1.0,7.0,50,0.00,,---,0.00,VWS V14.01,2013-03-09 01:05:00,
2013-03-08 20:10:00,46.8,28.7,30.27,East,79,3.0,7.0,49,0.00,,---,0.00,VWS V14.01,2013-03-09 01:10:00,
2013-03-08 20:15:00,46.7,29.1,30.27,West,280,2.0,8.0,50,0.00,,---,0.00,VWS V14.01,2013-03-09 01:15:00,
2013-03-08 20:20:00,46.7,29.1,30.27,WSW,257,1.0,8.0,50,0.00,,---,0.00,VWS V14.01,2013-03-09 01:20:00,
2013-03-08 20:25:00,46.7,29.1,30.27,NNE,25,1.0,8.0,50,0.00,,---,0.00,VWS V14.01,2013-03-09 01:25:00,
2013-03-08 20:30:00,46.7,28.6,30.27,WNW,302,2.0,10.0,49,0.00,,---,0.00,VWS V14.01,2013-03-09 01:30:00,
2013-03-08 20:35:00,46.7,28.6,30.27,WNW,295,0.0,5.0,49,0.00,,---,0.00,VWS V14.01,2013-03-09 01:35:00,
2013-03-08 20:40:00,46.7,28.6,30.27,West,278,2.0,6.0,49,0.00,,---,0.00,VWS V14.01,2013-03-09 01:40:00,
2013-03-08 20:45:00,46.7,29.1,30.28,West,274,1.0,6.0,50,0.00,,---,0.00,VWS V14.01,2013-03-09 01:45:00,
2013-03-08 20:50:00,46.7,29.1,30.27,SW,219,1.0,6.0,50,0.00,,---,0.00,VWS V14.01,2013-03-09 01:50:00,
2013-03-08 20:55:00,46.5,28.9,30.27,NW,305,1.0,6.0,50,0.00,,---,0.00,VWS V14.01,2013-03-09 01:55:00,
2013-03-08 21:00:00,46.4,28.8,30.28,NNW,340,7.0,7.0,50,0.00,,---,0.00,VWS V14.01,2013-03-09 02:00:00,
2013-03-08 21:05:00,46.2,29.1,30.28,West,275,0.0,6.0,51,0.00,,---,0.00,VWS V14.01,2013-03-09 02:05:00,
2013-03-08 21:10:00,46.0,28.9,30.28,NNW,334,2.0,8.0,51,0.00,,---,0.00,VWS V14.01,2013-03-09 02:10:00,
2013-03-08 21:15:00,45.9,29.3,30.28,NW,304,1.0,8.0,52,0.00,,---,0.00,VWS V14.01,2013-03-09 02:15:00,
2013-03-08 21:20:00,45.8,29.2,30.28,West,274,2.0,8.0,52,0.00,,---,0.00,VWS V14.01,2013-03-09 02:20:00,
2013-03-08 21:25:00,45.7,29.6,30.28,NNE,18,1.0,8.0,53,0.00,,---,0.00,VWS V14.01,2013-03-09 02:25:00,
2013-03-08 21:30:00,45.6,29.0,30.28,WNW,292,3.0,8.0,52,0.00,,---,0.00,VWS V14.01,2013-03-09 02:30:00,
2013-03-08 21:35:00,45.5,29.4,30.28,SW,232,1.0,2.0,53,0.00,,---,0.00,VWS V14.01,2013-03-09 02:35:00,
2013-03-08 21:40:00,45.3,29.2,30.28,WNW,298,1.0,3.0,53,0.00,,---,0.00,VWS V14.01,2013-03-09 02:40:00,
2013-03-08 21:45:00,45.2,28.6,30.28,North,356,4.0,7.0,52,0.00,,---,0.00,VWS V14.01,2013-03-09 02:45:00,
2013-03-08 21:50:00,45.1,28.5,30.28,WNW,295,2.0,7.0,52,0.00,,---,0.00,VWS V14.01,2013-03-09 02:50:00,
2013-03-08 21:55:00,44.9,28.4,30.28,SW,221,1.0,7.0,52,0.00,,---,0.00,VWS V14.01,2013-03-09 02:55:00,
2013-03-08 22:00:00,44.8,28.3,30.28,NNE,13,3.0,7.0,52,0.00,,---,0.00,VWS V14.01,2013-03-09 03:00:00,
2013-03-08 22:05:00,44.8,28.3,30.28,NW,316,1.0,7.0,52,0.00,,---,0.00,VWS V14.01,2013-03-09 03:05:00,
2013-03-08 22:10:00,44.7,28.2,30.28,North,351,4.0,8.0,52,0.00,,---,0.00,VWS V14.01,2013-03-09 03:10:00,
2013-03-08 22:15:00,44.6,28.1,30.28,ENE,61,2.0,8.0,52,0.00,,---,0.00,VWS V14.01,2013-03-09 03:15:00,
2013-03-08 22:20:00,44.5,28.0,30.28,NW,309,2.0,8.0,52,0.00,,---,0.00,VWS V14.01,2013-03-09 03:20:00,
2013-03-08 22:25:00,44.3,27.8,30.28,WNW,284,1.0,8.0,52,0.00,,---,0.00,VWS V14.01,2013-03-09 03:25:00,
2013-03-08 22:30:00,44.0,28.0,30.28,North,356,2.0,8.0,53,0.00,,---,0.00,VWS V14.01,2013-03-09 03:30:00,
2013-03-08 22:35:00,43.8,28.2,30.28,NNW,346,0.0,6.0,54,0.00,,---,0.00,VWS V14.01,2013-03-09 03:35:00,
2013-03-08 22:40:00,43.5,28.0,30.28,West,281,0.0,6.0,54,0.00,,---,0.00,VWS V14.01,2013-03-09 03:40:00,
2013-03-08 22:45:00,43.2,28.1,30.28,WNW,284,1.0,6.0,55,0.00,,---,0.00,VWS V14.01,2013-03-09 03:45:00,
2013-03-08 22:50:00,43.0,28.0,30.28,WSW,255,5.0,6.0,55,0.00,,---,0.00,VWS V14.01,2013-03-09 03:50:00,
2013-03-08 22:55:00,42.9,28.3,30.28,NW,319,2.0,6.0,56,0.00,,---,0.00,VWS V14.01,2013-03-09 03:55:00,
2013-03-08 23:00:00,42.6,28.5,30.28,NE,39,4.0,6.0,57,0.00,,---,0.00,VWS V14.01,2013-03-09 04:00:00,
2013-03-08 23:05:00,42.4,28.3,30.28,NNW,328,2.0,3.0,57,0.00,,---,0.00,VWS V14.01,2013-03-09 04:05:00,
2013-03-08 23:10:00,42.2,28.5,30.28,West,262,1.0,7.0,58,0.00,,---,0.00,VWS V14.01,2013-03-09 04:10:00,
2013-03-08 23:15:00,42.0,28.3,30.28,NNW,329,1.0,7.0,58,0.00,,---,0.00,VWS V14.01,2013-03-09 04:15:00,
2013-03-08 23:20:00,41.8,28.5,30.28,South,170,4.0,7.0,59,0.00,,---,0.00,VWS V14.01,2013-03-09 04:20:00,
2013-03-08 23:25:00,41.6,28.4,30.28,WNW,290,1.0,7.0,59,0.00,,---,0.00,VWS V14.01,2013-03-09 04:25:00,
2013-03-08 23:30:00,41.4,28.6,30.28,West,264,2.0,7.0,60,0.00,,---,0.00,VWS V14.01,2013-03-09 04:30:00,
2013-03-08 23:35:00,41.2,28.4,30.28,NNW,327,3.0,4.0,60,0.00,,---,0.00,VWS V14.01,2013-03-09 04:35:00,
2013-03-08 23:40:00,41.0,28.6,30.28,SSE,152,0.0,4.0,61,0.00,,---,0.00,VWS V14.01,2013-03-09 04:40:00,
2013-03-08 23:45:00,40.7,28.3,30.28,ESE,113,0.0,4.0,61,0.00,,---,0.00,VWS V14.01,2013-03-09 04:45:00,
2013-03-08 23:50:00,40.5,28.5,30.28,SSW,205,0.0,4.0,62,0.00,,---,0.00,VWS V14.01,2013-03-09 04:50:00,
2013-03-08 23:55:00,40.4,28.4,30.28,East,93,1.0,4.0,62,0.00,,---,0.00,VWS V14.01,2013-03-09 04:55:00,